Location: Stoke Bliss
(52.2667°N, 2.5167°W)
Time: 16:51:06
(UTC+00:00)

Cosmos 1869 Rocket - Pass Details

Date: 03 March 2021
Orbit: 605 x 633 km, 82.5° (Epoch: 17 April)

Event Time Altitude Azimuth Distance (km) Brightness Sun altitude
Rises 19:51:39 0° 181° (S) 2,863 6.8 -18.8°
Reaches altitude 10° 19:53:51 10° 178° (S) 1,968 6.0 -19.1°
Maximum altitude 19:58:10 66° 97° (E) 679 3.4 -19.7°
Drops below altitude 10° 20:02:34 10° 16° (NNE) 2,002 6.2 -20.4°
Sets 20:04:49 0° 13° (NNE) 2,918 7.1 -20.7°
